Change the Weather History Date:

Saturday, November 16, 2013

  Actual Average Record
Temperature  
Mean Temperature 46 °F -  
Max Temperature 59 °F 48 °F 73 °F (1993)
Min Temperature 32 °F 27 °F 8 °F (1996)
Degree Days  
Heating Degree Days 19    
Moisture  
Dew Point 26 °F    
Average Humidity 57    
Maximum Humidity 82    
Minimum Humidity 25    
Precipitation  
Precipitation 0.00 in - - ()
Sea Level Pressure  
Sea Level Pressure 30.30 in    
Wind  
Wind Speed 1 mph (North)    
Max Wind Speed 6 mph    
Max Gust Speed -    
Visibility 10 miles    
Events      
Averages and records for this station are not official NWS values.
T = Trace of Precipitation, MM = Missing Value Source: NWS Daily Summary

Daily Weather History Graph

Daily Weather History Graph

Search for Another Location

Airport or City:

Trip Planner

Search our weather history database for the weather conditions in past years. The results will help you decide how hot, cold, wet, or windy it might be!

Date:

Astronomy

Nov. 16, 2013 Rise Set
Actual Time 6:39 AM EST 4:21 PM EST
Civil Twilight 6:08 AM EST 4:51 PM EST
Nautical Twilight 5:34 AM EST 5:26 PM EST
Astronomical Twilight 5:00 AM EST 5:59 PM EST
Moon 3:55 PM EST (11/16) 5:31 AM EST (11/16)
Length of Visible Light 10h 43m
Length of Day
9h 41m
Waxing Gibbous, 99% of the Moon is Illuminated
Nov 16
Waxing Gibbous
Nov 17
Full
Nov 25
Last Quarter
Dec 2
New
Dec 9
First Quarter

Hourly Weather History & Observations

Time (EST) Temp. Windchill Dew Point Humidity Pressure Visibility Wind Dir Wind Speed Gust Speed Precip Events Conditions
12:53 AM 34.0 °F - 26.1 °F 73% 30.22 in 10.0 mi Calm Calm - N/A   Clear
1:53 AM 34.0 °F - 26.1 °F 73% 30.22 in 10.0 mi Calm Calm - N/A   Clear
2:53 AM 33.1 °F - 26.1 °F 75% 30.23 in 10.0 mi Calm Calm - N/A   Clear
3:53 AM 33.1 °F - 26.1 °F 75% 30.27 in 10.0 mi Calm Calm - N/A   Clear
4:53 AM 34.0 °F 28.8 °F 27.0 °F 75% 30.27 in 10.0 mi NNW 5.8 mph - N/A   Scattered Clouds
5:53 AM 34.0 °F - 26.1 °F 73% 30.28 in 10.0 mi Calm Calm - N/A   Mostly Cloudy
6:53 AM 35.1 °F 32.2 °F 27.0 °F 72% 30.27 in 10.0 mi NNW 3.5 mph - N/A   Overcast
7:53 AM 37.0 °F - 27.0 °F 67% 30.31 in 10.0 mi Calm Calm - N/A   Overcast
8:53 AM 39.0 °F - 27.0 °F 62% 30.33 in 10.0 mi Calm Calm - N/A   Overcast
9:53 AM 43.0 °F - 27.0 °F 53% 30.34 in 10.0 mi Calm Calm - N/A   Overcast
10:53 AM 48.9 °F - 26.1 °F 41% 30.33 in 10.0 mi Calm Calm - N/A   Scattered Clouds
10:59 AM 48.2 °F - 26.6 °F 43% 30.28 in 10.0 mi Calm Calm - N/A   Scattered Clouds
11:53 AM 55.0 °F - 25.0 °F 31% 30.31 in 10.0 mi NNW 5.8 mph - N/A   Scattered Clouds
12:53 PM 57.9 °F - 21.9 °F 25% 30.30 in 10.0 mi North 5.8 mph - N/A   Clear
1:53 PM 59.0 °F - 23.0 °F 25% 30.29 in 10.0 mi NNE 3.5 mph - N/A   Clear
2:53 PM 59.0 °F - 24.1 °F 26% 30.29 in 10.0 mi Calm Calm - N/A   Clear
3:53 PM 57.0 °F - 25.0 °F 29% 30.31 in 10.0 mi SE 3.5 mph - N/A   Clear
4:53 PM 48.9 °F - 28.0 °F 44% 30.32 in 10.0 mi SE 3.5 mph - N/A   Clear
5:53 PM 44.1 °F - 28.9 °F 55% 30.33 in 10.0 mi Calm Calm - N/A   Clear
6:53 PM 45.0 °F - 28.0 °F 52% 30.34 in 10.0 mi Calm Calm - N/A   Clear
7:53 PM 41.0 °F - 28.0 °F 60% 30.34 in 10.0 mi Calm Calm - N/A   Clear
8:53 PM 39.0 °F - 28.0 °F 65% 30.35 in 10.0 mi Calm Calm - N/A   Clear
9:53 PM 35.1 °F - 28.0 °F 76% 30.35 in 10.0 mi Calm Calm - N/A   Clear
10:53 PM 34.0 °F 29.8 °F 28.0 °F 79% 30.35 in 10.0 mi NNW 4.6 mph - N/A   Clear
11:53 PM 32.0 °F - 27.0 °F 82% 30.35 in 10.0 mi Calm Calm - N/A   Clear